[[{"header":{"parameterUnit":"m.s-1","parameterCategory":1,"la1":30.2992,"la2":30.254,"lo1":-89.0895,"lo2":-89.0443,"dy":0.0025,"dx":0.0025,"nx":19,"ny":19,"refTime":"2026-04-25T03:00:00:Z","depth":0,"parameterNumber":2,"parameterNumberName":"U-component_of_WINDS"},"data":[0,0,0,-0.0433,-0.0431,-0.0319,-0.0318,-0.0181,-0.018,0,0,0,0,0,0,0,0,0,0,0,-0.0472,-0.0471,-0.0434,-0.0431,-0.0319,-0.0318,-0.0181,-0.018,0,0,0,0,0,0,0,0,0,0,0,-0.0472,-0.0471,-0.0471,-0.0431,-0.0319,-0.0318,-0.0181,-0.0263,0,0,0,0,0,0,0,0,0,0,-0.0371,-0.0413,-0.0472,-0.0471,-0.043,-0.0319,-0.0318,-0.0267,-0.0258,-0.0235,0,-0.0217,0,-0.0196,-0.0171,-0.0171,0,0,0,-0.0427,-0.042,-0.0385,-0.047,-0.0429,-0.0319,-0.0368,-0.0262,-0.0252,-0.0223,-0.0215,-0.0209,-0.0194,-0.017,-0.017,-0.0051,-0.0051,0,0,-0.0433,-0.0454,-0.0392,-0.0379,-0.0398,-0.0372,-0.0365,-0.0256,-0.0248,-0.0214,-0.0206,-0.0192,-0.0169,-0.0168,-0.0051,-0.0051,0,0,0,-0.0454,-0.0459,-0.0426,-0.0385,-0.0364,-0.0369,-0.036,-0.0253,-0.024,-0.0204,-0.019,-0.0169,-0.0167,-0.0052,-0.0051,-0.0055,0,0,0,-0.0457,-0.0471,-0.0429,-0.0441,-0.0366,-0.0307,-0.036,-0.0248,-0.0235,-0.0191,-0.0169,-0.0166,-0.0052,-0.0051,-0.0056,-0.0053,0,0,0,-0.0477,-0.0473,-0.0459,-0.0443,-0.0395,-0.0309,-0.029,-0.0245,-0.0226,-0.017,-0.0165,-0.0052,-0.0051,-0.0056,-0.0054,-0.0028,0,0,0,-0.0505,-0.0464,-0.0459,-0.0407,-0.0397,-0.0312,-0.029,-0.0226,-0.0179,-0.0168,-0.0052,-0.0051,-0.0056,-0.0054,-0.0028,-0.0009,-0.0004,0,0,-0.0465,-0.046,-0.0428,-0.042,-0.0342,-0.0328,-0.0249,-0.0185,-0.016,-0.0088,-0.0085,-0.0055,-0.0054,-0.0028,0.0036,0.004,0,0,0,-0.0422,-0.0399,-0.0374,-0.033,-0.0281,-0.0237,-0.0183,-0.0159,-0.0097,-0.0128,-0.0038,-0.0037,-0.002,-0.001,-0.0006,0.0009,-0.0048,-0.0048,-0.0048,-0.0397,-0.0366,-0.031,-0.0266,-0.0224,-0.0168,-0.013,-0.0088,-0.007,-0.0049,-0.0027,0.0007,0.0018,0.0021,0.0038,-0.0015,-0.0015,-0.0015,-0.0015,-0.0335,-0.0297,-0.0273,-0.0211,-0.0178,-0.0125,-0.0068,-0.0057,-0.0001,-0.0007,0.0009,0.0001,0.0025,0.0041,-0.0015,-0.0015,-0.0015,-0.0015,-0.0015,-0.0315,-0.0292,-0.0263,-0.0196,-0.0147,-0.0103,-0.0051,-0.0023,0.0004,0.002,0.0046,0.0046,0.005,0.003,0.003,0.003,0.003,0.0031,0.0031,-0.0306,-0.0273,-0.0233,-0.0176,-0.0144,-0.0097,-0.0039,-0.0006,0.0038,0.0055,0.0055,0.0072,0.0022,0.0009,0.0033,0.0032,0.0032,0.0032,0.0032,-0.0254,-0.0261,-0.0199,-0.0167,-0.0096,-0.0049,-0.0014,0.0052,0.0084,0.0109,0.0123,0.0081,0.0089,0.0086,0.0076,0.0116,0.0116,0.0116,0.0116,-0.0237,-0.0231,-0.016,-0.011,-0.0057,-0.0019,0.0053,0.0099,0.0146,0.0168,0.0167,0.0155,0.0151,0.0161,0.0157,0.0147,0.0205,0.0205,0.0205,-0.0204,-0.019,-0.0137,-0.0091,-0.0034,0.0016,0.0084,0.0142,0.0194,0.0209,0.0186,0.0182,0.0164,0.0156,0.017,0.0162,0.0146,0,0]},{"header":{"parameterUnit":"m.s-1","parameterCategory":1,"la1":30.2992,"la2":30.254,"lo1":-89.0895,"lo2":-89.0443,"dy":0.0025,"dx":0.0025,"nx":19,"ny":19,"refTime":"2026-04-25T03:00:00:Z","depth":0,"parameterNumber":3,"parameterNumberName":"V-component_of_WINDS"},"data":[0,0,0,0.815,0.8151,0.8251,0.8251,0.8367,0.8368,0,0,0,0,0,0,0,0,0,0,0,0.8113,0.8113,0.8149,0.8152,0.8251,0.8251,0.8367,0.8368,0,0,0,0,0,0,0,0,0,0,0,0.8113,0.8113,0.8114,0.8152,0.8251,0.8251,0.8366,0.8296,0,0,0,0,0,0,0,0,0,0,0.8201,0.816,0.8113,0.8114,0.8152,0.8251,0.8251,0.8292,0.83,0.8317,0,0.833,0,0.8351,0.8375,0.8375,0,0,0,0.8157,0.8154,0.8187,0.8114,0.8153,0.825,0.8208,0.8297,0.8305,0.8327,0.8331,0.8336,0.8352,0.8375,0.8376,0.8456,0.8456,0,0,0.8152,0.8127,0.8181,0.8192,0.8176,0.8204,0.8211,0.8302,0.8306,0.8332,0.8339,0.8354,0.8376,0.8377,0.8455,0.8456,0,0,0,0.8132,0.8123,0.8154,0.8187,0.8206,0.8207,0.8214,0.8301,0.8314,0.834,0.8356,0.8377,0.8378,0.8455,0.8456,0.8438,0,0,0,0.8129,0.8111,0.8151,0.8137,0.8204,0.8255,0.8211,0.8307,0.8319,0.8355,0.8377,0.8379,0.8455,0.8455,0.8438,0.8434,0,0,0,0.8109,0.8109,0.8121,0.8136,0.8177,0.8254,0.8272,0.831,0.8328,0.8375,0.8379,0.8455,0.8455,0.8438,0.8434,0.8449,0,0,0,0.808,0.8103,0.812,0.8152,0.8176,0.8242,0.8272,0.8322,0.836,0.8377,0.8455,0.8455,0.8439,0.8435,0.8448,0.8456,0.8457,0,0,0.8095,0.8104,0.8125,0.8143,0.82,0.8229,0.8283,0.8342,0.8369,0.8425,0.8427,0.8438,0.8434,0.8449,0.8469,0.8469,0,0,0,0.8121,0.8136,0.8156,0.8192,0.8238,0.8277,0.833,0.8352,0.8402,0.8393,0.8448,0.8446,0.8455,0.846,0.8461,0.8471,0.8456,0.8456,0.8456,0.8107,0.8141,0.8179,0.8225,0.8259,0.8315,0.8346,0.8385,0.8409,0.8421,0.8438,0.8446,0.8451,0.8452,0.8462,0.8445,0.8445,0.8445,0.8444,0.8133,0.816,0.8192,0.824,0.8276,0.8317,0.8371,0.8387,0.843,0.8436,0.8446,0.845,0.8451,0.8462,0.8444,0.8444,0.8444,0.8444,0.8444,0.8128,0.8147,0.8174,0.823,0.827,0.8317,0.8358,0.8389,0.8418,0.8428,0.8451,0.8451,0.8456,0.8437,0.8437,0.8437,0.8437,0.8437,0.8437,0.8112,0.8143,0.8174,0.8225,0.8254,0.8295,0.8351,0.838,0.842,0.844,0.844,0.8463,0.8445,0.844,0.8437,0.8437,0.8437,0.8437,0.8437,0.8127,0.8129,0.8176,0.8204,0.8268,0.8307,0.8347,0.8403,0.8431,0.8451,0.8472,0.8453,0.8464,0.8464,0.846,0.8464,0.8464,0.8464,0.8464,0.8123,0.8132,0.8188,0.8231,0.8278,0.8319,0.8372,0.8418,0.8464,0.8484,0.8488,0.8486,0.8484,0.8497,0.8496,0.8493,0.8505,0.8505,0.8505,0.8134,0.8149,0.8188,0.8235,0.8288,0.8333,0.8385,0.8434,0.8487,0.8507,0.8501,0.8499,0.8496,0.8493,0.8512,0.851,0.8505,0,0]}]]